Terug naar catalogus

STARLINK-34416

ActiefCommunicatieVLEO
NORAD 64619·PAYLOAD·🇺🇸 United States

Gelanceerd Jun 25, 2025 vanaf Cape Canaveral Space Force Station

Loading…

Volgende Passages (komende 24 uur)

TLE

VersSource: CelesTrak SupGP

Epoch: Sep 14, 2026, 21:10 UTC

1 64619C 25137AB  26257.88243056 -.00022470  00000+0 -66387-3 0  2578
2 64619  53.1568 173.9582 0001381  90.4349   5.5422 15.34401945    18

Volg STARLINK-34416 in realtime met AllMySat

Download on the App Store